FW6151 Weather Reports


time (UTC)temp
C
wind
direction
speed
KPH
gust
KPH
rain 1hr
cm
rain 24hr
cm
rain mn
cm
humidity
%
barometer
mb
20260506181045 11 191 0.0 0.0 0.08 1.17 1.17 90 1013.0
20260506180547 11 191 0.0 0.0 0.08 1.17 1.17 90 1013.0
20260506180044 11 191 0.0 0.0 0.05 1.35 1.14 90 1013.0
20260506175546 11 191 0.0 0.0 0.08 1.35 1.14 90 1013.0
20260506175044 11 191 0.0 0.0 0.08 1.35 1.14 90 1012.9
20260506174543 11 191 0.0 0.0 0.08 1.35 1.14 90 1012.8
20260506174043 11 191 0.0 0.0 0.05 1.32 1.12 90 1012.9
20260506173542 11 191 0.0 0.0 0.05 1.32 1.12 90 1012.8
20260506173052 11 191 0.0 0.0 0.08 1.32 1.12 90 1012.8
20260506172543 11 191 0.0 0.0 0.08 1.32 1.12 90 1012.7
20260506172042 11 191 0.0 0.0 0.08 1.32 1.12 90 1012.6
20260506171545 11 191 0.0 0.0 0.05 1.30 1.09 91 1012.6
20260506171040 11 191 0.0 0.0 0.08 1.30 1.09 91 1012.6
20260506170540 11 191 0.0 0.0 0.08 1.30 1.09 91 1012.5
20260506170044 11 191 0.0 0.0 0.08 1.30 1.09 91 1012.5
20260506165539 11 191 0.0 0.0 0.05 1.27 1.07 90 1012.5
20260506165038 11 191 0.0 0.0 0.05 1.27 1.07 90 1012.5
20260506164546 11 191 0.0 0.0 0.08 1.27 1.07 90 1012.4
20260506164037 11 191 0.0 0.0 0.08 1.27 1.07 90 1012.4
20260506163537 11 191 0.0 0.0 0.10 1.27 1.07 90 1012.3
20260506163037 11 191 0.0 0.0 0.08 1.24 1.04 90 1012.3
20260506162536 11 191 0.0 0.0 0.08 1.24 1.04 90 1012.3
20260506162036 11 191 0.0 0.0 0.08 1.24 1.04 90 1012.3
20260506161544 11 191 0.0 0.0 0.08 1.24 1.04 90 1012.3
20260506161036 11 191 0.0 0.0 0.05 1.22 1.02 90 1012.2
20260506160536 11 191 0.0 0.0 0.05 1.22 1.02 90 1012.3
20260506160043 11 191 0.0 0.0 0.05 1.22 1.02 90 1012.2
20260506155535 11 191 0.0 0.0 0.05 1.22 1.02 90 1012.3
20260506155035 11 191 0.0 0.0 0.05 1.22 1.02 90 1012.2
20260506154535 11 191 0.0 0.0 0.03 1.19 0.99 90 1012.2
20260506154035 11 191 0.0 0.0 0.03 1.19 0.99 90 1012.2
20260506153535 11 191 0.0 0.0 0.00 1.17 0.97 90 1012.1
20260506153035 11 191 0.0 0.0 0.00 1.17 0.97 89 1012.1
20260506152535 11 191 0.0 0.0 0.00 1.17 0.97 90 1012.1
20260506152038 11 191 0.0 0.0 0.03 1.17 0.97 90 1012.1
20260506151543 11 191 0.0 0.0 0.03 1.17 0.97 89 1012.0
20260506151034 11 191 0.0 0.0 0.03 1.17 0.97 89 1012.1
20260506150534 11 191 0.0 0.0 0.03 1.17 0.97 89 1012.1
20260506150034 11 191 0.0 0.0 0.03 1.17 0.97 89 1012.0
20260506145534 11 191 0.0 0.0 0.03 1.17 0.97 89 1012.0
20260506145034 11 191 0.0 1.6 0.05 1.17 0.97 89 1012.0
20260506144533 11 191 0.0 3.2 0.05 1.17 0.97 89 1011.9
20260506144041 11 191 0.0 1.6 0.05 1.17 0.97 89 1011.9
20260506143533 11 191 0.0 1.6 0.08 1.17 0.97 89 1011.9
20260506143043 11 191 0.0 1.6 0.08 1.17 0.97 89 1011.9
20260506142532 11 191 0.0 1.6 0.10 1.17 0.97 89 1011.9
20260506142032 11 191 0.0 1.6 0.08 1.14 0.94 89 1011.9
20260506141533 11 191 0.0 1.6 0.08 1.14 0.94 89 1012.0
20260506141034 11 191 0.0 1.6 0.10 1.14 0.94 88 1012.0
20260506140533 11 191 0.0 1.6 0.13 1.14 0.94 88 1012.0
20260506140036 11 191 0.0 4.8 0.13 1.14 0.94 89 1012.0
20260506135531 11 191 0.0 4.8 0.13 1.14 0.94 89 1012.0
20260506135031 11 191 0.0 1.6 0.10 1.12 0.91 88 1012.1
20260506134532 11 191 0.0 3.2 0.13 1.12 0.91 89 1012.1
20260506134033 11 191 0.0 3.2 0.15 1.12 0.91 88 1012.1
20260506133531 11 191 0.0 6.4 0.13 1.09 0.89 88 1012.0
20260506133034 11 257 1.6 6.4 0.15 1.09 0.89 88 1012.0
20260506132531 11 5 0.0 4.8 0.13 1.07 0.86 89 1012.0
20260506132031 11 46 0.0 3.2 0.15 1.07 0.86 90 1012.0
20260506131533 11 46 0.0 3.2 0.15 1.07 0.86 90 1012.0
20260506131134 11 27 0.0 4.8 0.18 1.04 0.84 90 1011.9
20260506130530 11 310 0.0 6.4 0.15 1.02 0.81 90 1011.8
20260506130032 11 238 0.0 12.9 0.20 1.02 0.81 90 1011.8
20260506125529 11 259 1.6 12.9 0.20 1.02 0.81 90 1011.7
20260506125029 11 277 0.0 9.7 0.36 1.02 0.81 90 1011.6
20260506124530 11 254 1.6 9.7 0.48 0.99 0.79 90 1011.5
20260506124029 11 186 1.6 6.4 0.46 0.97 0.76 90 1011.5
20260506123529 11 106 1.6 4.8 0.48 0.97 0.76 90 1011.5
20260506123029 11 109 0.0 3.2 0.48 0.94 0.71 90 1011.4
20260506122528 11 109 0.0 4.8 0.53 0.94 0.71 89 1011.3
20260506122028 11 109 0.0 4.8 0.56 0.91 0.71 89 1011.2
20260506121529 12 132 0.0 12.9 0.53 0.89 0.69 88 1011.2
20260506121029 12 263 0.0 12.9 0.53 0.86 0.66 88 1011.1
20260506120529 12 167 1.6 6.4 0.53 0.84 0.64 88 1011.1
20260506120031 12 182 1.6 4.8 0.51 0.81 0.61 88 1011.1
20260506115527 12 77 0.0 14.5 0.48 0.79 0.58 88 1011.0
20260506115028 13 241 6.4 14.5 0.30 0.61 0.41 88 1010.9
20260506114538 13 181 0.0 0.0 0.23 0.51 0.30 89 1010.6
20260506114027 13 181 0.0 0.0 0.23 0.51 0.30 88 1010.6
20260506113527 13 181 0.0 0.0 0.23 0.48 0.28 88 1010.5
20260506113029 13 181 0.0 0.0 0.20 0.46 0.25 87 1010.6
20260506112527 13 181 0.0 0.0 0.15 0.41 0.20 87 1010.5
20260506112025 13 181 0.0 0.0 0.10 0.36 0.15 87 1010.5
20260506111525 13 181 0.0 0.0 0.13 0.36 0.15 86 1010.6
20260506111026 13 181 0.0 0.0 0.10 0.33 0.13 86 1010.6
20260506110525 13 181 0.0 0.0 0.08 0.30 0.10 85 1010.6
20260506110024 13 181 0.0 0.0 0.08 0.30 0.10 85 1010.6
20260506105524 13 181 0.0 0.0 0.08 0.30 0.10 85 1010.6
20260506105024 13 181 0.0 0.0 0.08 0.30 0.10 85 1010.4
20260506104523 13 181 0.0 0.0 0.05 0.28 0.08 84 1010.4
20260506104023 13 181 0.0 0.0 0.05 0.28 0.08 84 1010.4
20260506103523 13 181 0.0 0.0 0.03 0.25 0.05 84 1010.3
20260506103023 13 181 0.0 0.0 0.03 0.25 0.05 84 1010.2
20260506102523 13 181 0.0 0.0 0.03 0.25 0.05 84 1010.2
20260506102023 13 181 0.0 0.0 0.03 0.25 0.05 83 1010.2
20260506101542 13 181 0.0 0.0 0.00 0.23 0.03 83 1010.2
20260506101022 13 181 0.0 0.0 0.00 0.23 0.03 82 1010.2
20260506100525 13 181 0.0 0.0 0.00 0.23 0.03 82 1010.2
20260506100021 13 181 0.0 0.0 0.00 0.23 0.03 81 1010.2
20260506095521 13 181 0.0 0.0 0.00 0.23 0.03 81 1010.2
20260506095022 13 181 0.0 3.2 0.00 0.23 0.03 81 1010.1
20260506094521 13 181 0.0 3.2 0.00 0.23 0.03 81 1010.1
20260506094022 13 181 0.0 3.2 0.00 0.23 0.03 82 1009.9
20260506093519 13 181 0.0 3.2 0.00 0.23 0.03 82 1009.9
20260506093019 13 181 0.0 3.2 0.00 0.23 0.03 83 1009.9
20260506092518 13 181 0.0 3.2 0.00 0.23 0.03 83 1009.8
20260506092019 13 181 0.0 4.8 0.00 0.23 0.03 83 1009.9
20260506091521 13 181 0.0 4.8 0.00 0.23 0.03 84 1009.9
20260506091017 13 230 0.0 4.8 0.00 0.23 0.03 86 1009.9
20260506090515 13 197 0.0 4.8 0.00 0.23 0.03 87 1009.8
20260506090015 12 197 0.0 4.8 0.00 0.23 0.03 88 1009.9
20260506085514 12 250 0.0 4.8 0.00 0.23 0.03 89 1009.9
20260506085014 12 252 0.0 4.8 0.00 0.23 0.03 90 1009.8
20260506084519 12 25 0.0 0.0 0.00 0.23 0.03 91 1009.7
20260506084013 12 25 0.0 0.0 0.00 0.23 0.03 92 1009.8
20260506083512 12 25 0.0 0.0 0.00 0.23 0.03 92 1009.7
20260506083012 12 25 0.0 0.0 0.00 0.23 0.03 92 1009.7
20260506082511 12 319 0.0 0.0 0.00 0.23 0.03 93 1009.6
20260506082016 12 291 0.0 0.0 0.00 0.23 0.03 94 1009.4
20260506081510 12 291 0.0 0.0 0.00 0.23 0.03 94 1009.4
20260506081013 12 291 0.0 0.0 0.00 0.23 0.03 94 1009.5
20260506080511 12 291 0.0 0.0 0.00 0.23 0.03 94 1009.5
20260506073505 11 272 0.0 0.0 0.00 0.25 0.03 95 1009.7
20260506073004 11 272 0.0 0.0 0.00 0.25 0.03 95 1009.6
20260506072508 11 272 0.0 0.0 0.00 0.25 0.03 95 1009.7
20260506072002 11 272 0.0 0.0 0.00 0.25 0.03 95 1009.7
20260506071613 11 272 0.0 0.0 0.00 0.25 0.03 95 1009.6
20260506071103 11 271 0.0 0.0 0.00 0.25 0.03 95 1009.6
20260506070558 11 274 0.0 0.0 0.00 0.25 0.03 95 1009.7
20260506062045 10 317 0.0 0.0 0.00 0.25 0.03 94 1009.7
20260506061544 10 315 0.0 0.0 0.00 0.25 0.03 95 1009.7
20260506061044 10 315 0.0 0.0 0.00 0.25 0.03 95 1009.7
20260506060546 10 315 0.0 0.0 0.00 0.25 0.03 94 1009.8
20260506051038 9 315 1.6 6.4 0.00 0.25 0.03 94 1009.9
20260506050537 9 310 0.0 1.6 0.00 0.25 0.03 94 1009.9
20260506045035 9 313 0.0 3.2 0.00 0.25 0.03 94 1009.7
20260506044534 9 313 0.0 4.8 0.00 0.25 0.03 94 1009.7
20260506044032 9 318 1.6 4.8 0.00 0.25 0.03 94 1009.6
20260506043534 9 315 0.0 4.8 0.00 0.25 0.03 94 1009.8
20260506043030 9 315 0.0 4.8 0.00 0.25 0.03 94 1009.9
20260506042529 9 316 1.6 4.8 0.00 0.25 0.03 94 1009.9
20260506042031 9 317 1.6 4.8 0.00 0.25 0.03 94 1009.9
20260506041532 9 317 1.6 4.8 0.00 0.25 0.03 94 1010.0
20260506041026 9 315 0.0 0.0 0.00 0.25 0.03 94 1010.1
20260506040527 9 322 0.0 0.0 0.00 0.25 0.03 94 1010.0
20260506040028 9 323 0.0 0.0 0.00 0.25 0.03 94 1010.0
20260506035524 9 323 0.0 0.0 0.00 0.25 0.03 94 1010.1
20260506035024 9 323 0.0 0.0 0.00 0.25 0.03 94 1010.1
20260506034524 10 323 0.0 0.0 0.00 0.25 0.03 94 1010.1
20260506034026 10 323 0.0 0.0 0.00 0.25 0.03 94 1010.1
20260506033523 10 323 0.0 0.0 0.00 0.25 0.03 94 1010.2
20260506033028 10 323 0.0 0.0 0.00 0.25 0.03 94 1010.2
20260506032523 10 323 0.0 0.0 0.00 0.25 0.03 94 1010.2
20260506032023 10 323 0.0 0.0 0.00 0.25 0.03 94 1010.2
20260506031526 10 323 0.0 1.6 0.00 0.25 0.03 94 1010.2
20260506031022 10 323 0.0 4.8 0.00 0.25 0.03 94 1010.4
20260506030524 10 322 0.0 4.8 0.00 0.25 0.03 94 1010.4
20260506030025 10 322 0.0 4.8 0.00 0.25 0.03 94 1010.3
20260506025519 10 322 0.0 1.6 0.00 0.25 0.03 94 1010.4
20260506025020 10 324 0.0 1.6 0.00 0.25 0.03 94 1010.4
20260506024519 10 324 0.0 4.8 0.00 0.25 0.03 94 1010.4
20260506024018 10 324 0.0 4.8 0.00 0.25 0.03 94 1010.5
20260506023517 10 248 0.0 3.2 0.00 0.25 0.03 94 1010.6
20260506023018 10 246 0.0 3.2 0.00 0.25 0.03 94 1010.5
20260506022517 10 305 0.0 3.2 0.00 0.25 0.03 94 1010.6
20260506022017 10 305 0.0 6.4 0.00 0.25 0.03 94 1010.6
20260506021517 10 309 0.0 6.4 0.00 0.25 0.03 94 1010.6
20260506021017 10 323 1.6 6.4 0.00 0.25 0.03 94 1010.5
20260506020515 10 235 0.0 8.0 0.00 0.25 0.03 94 1010.6
20260506020020 10 315 3.2 8.0 0.00 0.25 0.03 94 1010.7
20260506015514 10 306 0.0 6.4 0.00 0.25 0.03 94 1010.8
20260506015014 10 266 0.0 3.2 0.00 0.25 0.03 94 1010.8
20260506014518 10 273 0.0 3.2 0.00 0.25 0.03 94 1010.8
20260506014013 10 285 0.0 3.2 0.00 0.25 0.03 94 1010.9
20260506013513 10 290 0.0 6.4 0.00 0.25 0.03 94 1010.9
20260506013023 10 312 1.6 6.4 0.00 0.25 0.03 94 1011.0
20260506012512 10 320 1.6 6.4 0.00 0.25 0.03 94 1011.1
20260506012012 10 315 1.6 6.4 0.00 0.25 0.03 94 1011.2
20260506011511 10 313 0.0 6.4 0.00 0.25 0.03 94 1011.3
20260506011010 10 316 1.6 6.4 0.00 0.25 0.03 94 1011.3
20260506010513 10 315 3.2 6.4 0.00 0.25 0.03 94 1011.3
20260506010010 10 304 0.0 4.8 0.00 0.25 0.03 94 1011.3
20260506005510 10 317 0.0 6.4 0.00 0.25 0.03 93 1011.4
20260506005015 10 262 1.6 4.8 0.00 0.25 0.03 93 1011.5
20260506004517 10 299 0.0 6.4 0.00 0.25 0.03 93 1011.4
20260506004008 10 311 1.6 6.4 0.00 0.25 0.03 93 1011.5
20260506003510 10 309 3.2 6.4 0.00 0.25 0.03 93 1011.4
20260506003008 10 247 0.0 3.2 0.00 0.25 0.03 93 1011.4
20260506002510 10 245 0.0 6.4 0.00 0.25 0.03 93 1011.4
20260506002007 10 302 0.0 6.4 0.00 0.25 0.03 93 1011.5
20260506001508 10 240 0.0 8.0 0.00 0.25 0.03 93 1011.5
20260506001006 10 320 1.6 8.0 0.00 0.25 0.03 93 1011.5
20260506000507 10 234 1.6 6.4 0.00 0.25 0.03 93 1011.7
20260506000014 10 219 0.0 6.4 0.00 0.25 0.03 93 1011.7
20260505235508 10 317 1.6 6.4 0.00 0.25 0.03 93 1011.7
20260505235003 10 325 1.6 4.8 0.00 0.25 0.03 93 1011.8
20260505234506 10 333 1.6 6.4 0.00 0.25 0.03 93 1011.8
20260505234002 10 322 1.6 8.0 0.00 0.25 0.03 93 1011.9
20260505233503 10 316 1.6 6.4 0.00 0.25 0.03 93 1012.0
20260505233001 10 314 3.2 8.0 0.00 0.25 0.03 93 1012.0
20260505232501 10 321 3.2 8.0 0.00 0.25 0.03 93 1012.0
20260505232002 10 321 1.6 6.4 0.00 0.25 0.03 93 1012.0
20260505231502 10 285 0.0 6.4 0.00 0.25 0.03 93 1012.0
20260505231001 10 289 1.6 8.0 0.00 0.25 0.03 93 1012.0
20260505230601 10 320 3.2 8.0 0.00 0.25 0.03 93 1012.1
20260505230118 10 319 1.6 6.4 0.03 0.25 0.03 93 1012.1
20260505225559 10 319 1.6 6.4 0.03 0.25 0.03 93 1012.2
20260505225100 10 317 1.6 4.8 0.03 0.25 0.03 93 1012.2
20260505224559 10 325 0.0 6.4 0.03 0.25 0.03 93 1012.2
20260505224059 10 312 1.6 6.4 0.03 0.25 0.03 92 1012.2
20260505223558 10 238 0.0 3.2 0.03 0.25 0.03 93 1012.3
20260505223101 10 238 0.0 4.8 0.03 0.25 0.03 92 1012.1
20260505222558 10 319 1.6 8.0 0.03 0.25 0.03 92 1012.2
20260505222057 10 321 4.8 8.0 0.03 0.25 0.03 92 1012.2
20260505221600 10 312 1.6 8.0 0.03 0.25 0.03 92 1012.1
20260505221056 10 324 1.6 8.0 0.03 0.25 0.03 92 1012.2
20260505220557 10 325 0.0 6.4 0.03 0.25 0.03 92 1012.2
20260505220056 10 275 0.0 3.2 0.00 0.23 0.23 92 1012.2
20260505215554 10 284 0.0 3.2 0.00 0.23 0.23 92 1012.1
20260505215054 11 287 0.0 4.8 0.00 0.23 0.23 92 1012.2
20260505214605 11 302 0.0 6.4 0.00 0.23 0.23 92 1012.3
20260505214054 11 313 1.6 6.4 0.00 0.23 0.23 92 1012.3
20260505213553 11 301 1.6 6.4 0.00 0.23 0.23 91 1012.2
20260505213058 11 284 0.0 3.2 0.00 0.23 0.23 91 1012.3
20260505212552 11 313 0.0 4.8 0.00 0.23 0.23 91 1012.4
20260505212051 11 313 1.6 4.8 0.00 0.23 0.23 91 1012.4
20260505211557 11 310 0.0 0.0 0.00 0.23 0.23 91 1012.4
20260505211051 11 319 0.0 0.0 0.00 0.23 0.23 91 1012.5
20260505210551 11 319 0.0 0.0 0.00 0.23 0.23 91 1012.5
20260505210053 11 319 0.0 3.2 0.00 0.23 0.23 91 1012.3
20260505205551 11 319 0.0 4.8 0.00 0.23 0.23 91 1012.4
20260505205049 11 319 3.2 4.8 0.00 0.23 0.23 91 1012.4
20260505204550 11 316 0.0 4.8 0.00 0.23 0.23 90 1012.4
20260505204049 11 316 0.0 1.6 0.00 0.23 0.23 90 1012.4
20260505203549 11 316 0.0 3.2 0.00 0.23 0.23 90 1012.6
20260505203051 11 316 0.0 3.2 0.00 0.23 0.23 90 1012.5
20260505202550 12 316 0.0 1.6 0.00 0.23 0.23 90 1012.5
20260505202054 12 316 0.0 1.6 0.00 0.23 0.23 90 1012.4
20260505201554 12 316 0.0 6.4 0.00 0.23 0.23 90 1012.2
20260505201049 12 360 1.6 4.8 0.00 0.23 0.23 90 1012.1
20260505200549 12 39 0.0 0.0 0.00 0.23 0.23 89 1012.1
20260505200048 12 39 0.0 0.0 0.00 0.23 0.23 89 1012.1
20260505195548 12 39 0.0 0.0 0.00 0.23 0.23 89 1012.1
20260505195051 12 39 0.0 0.0 0.00 0.23 0.23 89 1012.0
20260505194548 12 39 0.0 0.0 0.00 0.23 0.23 89 1011.8
20260505194048 12 39 0.0 0.0 0.00 0.23 0.23 88 1011.8
20260505193550 12 39 0.0 0.0 0.00 0.23 0.23 88 1011.8
20260505193050 12 39 0.0 0.0 0.00 0.23 0.23 88 1011.8
20260505192551 12 39 0.0 0.0 0.00 0.23 0.23 87 1011.7
20260505192048 12 39 0.0 0.0 0.00 0.23 0.23 87 1011.7
20260505191555 13 39 0.0 0.0 0.00 0.23 0.23 87 1011.6
20260505191050 13 39 0.0 0.0 0.00 0.23 0.23 87 1011.8
20260505190548 13 39 0.0 0.0 0.00 0.23 0.23 87 1011.6
20260505185546 13 39 0.0 0.0 0.00 0.23 0.23 86 1011.5
20260505185046 13 39 0.0 0.0 0.03 0.23 0.23 86 1011.5
20260505184559 13 39 0.0 0.0 0.03 0.23 0.23 86 1011.5
20260505184046 14 39 0.0 0.0 0.03 0.23 0.23 86 1011.3
20260505183548 14 39 0.0 0.0 0.05 0.23 0.23 86 1011.3
20260505183051 14 39 0.0 0.0 0.20 0.23 0.23 86 1011.3
20260505182546 14 39 0.0 0.0 0.20 0.23 0.23 85 1011.2
20260505182046 14 39 0.0 0.0 0.20 0.23 0.23 85 1011.0
20260505181546 14 39 0.0 0.0 0.20 0.23 0.23 84 1011.0